Regional Weather Roundup
Issued by NWS State College, PA

Home | Current Version | Previous Version | Text Only | Print | Product List | Glossary Off
Versions: 1 2 3 4 5 6 7 8 9 10 11 12 13 14 15 16 17 18 19 20 21 22 23 24 25 26 27 28 29 30 31 32 33 34 35 36 37 38 39 40 41 42 43 44 45 46 47 48 49 50

000
ASUS41 KCTP 300710
RWRCTP

REGIONAL WEATHER ROUNDUP
NATIONAL WEATHER SERVICE STATE COLLEGE PA
200 AM EST FRI JAN 30 2015

Note: "fair" indicates few or no clouds below 12,000 feet with no
significant weather and/or obstructions to visibility.

* = STATION THAT DOES NOT REPORT PRECIPITATION /E.G. RAIN...SNOW...ETC/
    THUNDER OR FOG.

PAZ002>004-007>009-013>016-020>023-029>032-300800-
WESTERN PENNSYLVANIA

CITY           SKY/WX    TMP DP  RH WIND       PRES   REMARKS
ERIE           LGT SNOW  29  26  89 W20G30    29.96R FOG
MEADVILLE      LGT SNOW  29  25  85 W12G22    29.93R FOG
FRANKLIN*      CLOUDY    27  23  86 W9        29.93S
NEW CASTLE     LGT SNOW  28  28 100 W6        29.99S FOG
BEAVER COUNTY  NOT AVBL
BUTLER*        CLOUDY    28  27  93 W7        29.98R
PITTSBURGH INT LGT SNOW  29  28  96 W9        29.98R VSB 1
PITTSBURGH     LGT SNOW  29  25  85 W8        29.97R VSB 3/4
INDIANA*       CLOUDY    30  27  86 NW8G16    29.97R
LATROBE        LGT SNOW  30  28  93 W13       29.99R VSB 3/4
WASHINGTON CO* CLOUDY    30  27  86 W7        30.01R VSB 1
$$

PAZ004>006-010>012-017>019-024>028-033>037-041-042-045-046-049>053-300800-
CENTRAL PENNSYLVANIA

CITY           SKY/WX    TMP DP  RH WIND       PRES   REMARKS
BRADFORD       LGT SNOW  26  22  84 W10       29.80S FOG
DUBOIS         CLOUDY    27  23  85 W13       29.86R FOG
CLEARFIELD     LGT SNOW  28  24  85 W8        29.88R FOG
JOHNSTOWN      LGT SNOW  27  24  89 W17G25    29.85R FOG     WCI  14
ALTOONA        CLOUDY    32  23  69 NW17G25   29.88R
STATE COLLEGE  CLOUDY    30  26  87 W10       29.88R
WILLIAMSPORT   CLOUDY    27  24  89 CALM      29.88S
SELINSGROVE    CLOUDY    29  24  82 SW6       29.91R
FT INDIANTOWN  CLOUDY    27  24  89 CALM      29.89F
CAPITAL CITY   CLOUDY    28  25  88 NW5       29.90F
HARRISBURG     CLOUDY    28  25  88 NW6       29.89F
YORK           CLOUDY    30  25  81 W5        29.88F
$$

PAZ038>040-043-044-047-048-054-055-060>062-067>071-300800-
EASTERN PENNSYLVANIA

CITY           SKY/WX    TMP DP  RH WIND       PRES   REMARKS
SCRANTON       CLOUDY    27  23  85 W5        29.85R FOG
MOUNT POCONO   CLOUDY    24  20  84 SW9       29.79F WCI  14
ALLENTOWN      CLOUDY    28  24  85 CALM      29.90F
QUAKERTOWN*    CLOUDY    28  25  86 CALM      29.90F
READING        CLOUDY    29  25  85 N3        29.89F
LANCASTER      CLOUDY    29  24  82 E3        29.88F
COATESVILLE    CLOUDY    32  25  74 CALM      29.88F
POTTSTOWN      CLOUDY    30  24  78 CALM      29.91F
BLUE BELL      CLOUDY    32  27  80 CALM      29.90S
DOYLESTOWN     CLOUDY    28  26  92 CALM      29.89F
WILLOW GROVE   NOT AVBL
NORTH PHILA    CLOUDY    33  25  72 CALM      29.93F
PHILADELPHIA   CLOUDY    35  24  64 S5        29.92F
$$


USA.gov is the U.S. government's official web portal to all federal, state and local government web resources and services.